• In Hungary
  • List of Countries
  • For 7 days
  • Water Temperature
  • Satellite Maps
  • Weather Map
  • News
  • Weather Widgets
  • user-avatar
    Login

    Hourly Weather Petrovskiy

    Today, 15 August, Wednesday

    Time Temperature Precipitation Wind Pressure Humidity
    00:00 +19°C° 0 mm 2 mps 757 mmHg 67%
    01:00 +18°C° 0 mm 2 mps 758 mmHg 68%
    02:00 +17°C° 0 mm 2 mps 758 mmHg 70%
    03:00 +17°C° 0 mm 2 mps 758 mmHg 72%
    04:00 +17°C° 0 mm 2 mps 758 mmHg 71%
    05:00 +17°C° 0 mm 2 mps 759 mmHg 70%
    06:00 +18°C° 0 mm 2 mps 759 mmHg 70%
    07:00 +19°C° 0 mm 2 mps 759 mmHg 62%
    08:00 +21°C° 0 mm 2 mps 760 mmHg 55%
    09:00 +24°C° 0 mm 2 mps 760 mmHg 48%
    10:00 +25°C° 0 mm 2 mps 760 mmHg 43%
    11:00 +26°C° 0 mm 2 mps 760 mmHg 39%
    12:00 +27°C° 0 mm 2 mps 760 mmHg 34%
    13:00 +27°C° 0 mm 2 mps 760 mmHg 32%
    14:00 +28°C° 0 mm 2 mps 759 mmHg 31%
    15:00 +28°C° 0 mm 2 mps 759 mmHg 29%
    16:00 +28°C° 0 mm 2 mps 759 mmHg 31%
    17:00 +27°C° 0 mm 2 mps 759 mmHg 34%
    18:00 +27°C° 0 mm 1 mps 759 mmHg 36%
    19:00 +25°C° 0 mm 1 mps 759 mmHg 38%
    20:00 +24°C° 0 mm 1 mps 760 mmHg 41%
    21:00 +22°C° 0 mm 1 mps 760 mmHg 43%
    22:00 +21°C° 0 mm 2 mps 760 mmHg 44%
    23:00 +20°C° 0 mm 2 mps 760 mmHg 46%

    Tomorrow, 16 August, Thursday

    Time Temperature Precipitation Wind Pressure Humidity
    00:00 +20°C° 0 mm 2 mps 760 mmHg 47%
    01:00 +19°C° 0 mm 2 mps 760 mmHg 48%
    02:00 +19°C° 0 mm 2 mps 760 mmHg 49%
    03:00 +19°C° 0 mm 2 mps 760 mmHg 51%
    04:00 +19°C° 0 mm 2 mps 760 mmHg 51%
    05:00 +19°C° 0 mm 2 mps 760 mmHg 51%
    06:00 +20°C° 0 mm 2 mps 760 mmHg 52%
    07:00 +22°C° 0 mm 3 mps 760 mmHg 46%
    08:00 +25°C° 0 mm 3 mps 760 mmHg 39%
    09:00 +28°C° 0 mm 4 mps 760 mmHg 33%
    10:00 +29°C° 0 mm 4 mps 760 mmHg 31%
    11:00 +30°C° 0 mm 4 mps 759 mmHg 29%
    12:00 +31°C° 0 mm 3 mps 759 mmHg 28%
    13:00 +31°C° 0 mm 3 mps 759 mmHg 27%
    14:00 +31°C° 0 mm 3 mps 759 mmHg 27%
    15:00 +33°C° 0 mm 3 mps 758 mmHg 26%
    16:00 +31°C° 0 mm 3 mps 758 mmHg 29%
    17:00 +30°C° 0 mm 2 mps 758 mmHg 32%
    18:00 +30°C° 0 mm 2 mps 758 mmHg 35%
    19:00 +28°C° 0 mm 1 mps 758 mmHg 37%
    20:00 +27°C° 0 mm 1 mps 758 mmHg 39%
    21:00 +25°C° 0 mm 1 mps 758 mmHg 41%
    22:00 +25°C° 0 mm 1 mps 758 mmHg 42%
    23:00 +24°C° 0 mm 1 mps 758 mmHg 43%

    Day after tomorrow, 17 August, Friday

    Time Temperature Precipitation Wind Pressure Humidity
    00:00 +24°C° 0 mm 1 mps 758 mmHg 44%
    01:00 +23°C° 0 mm 1 mps 757 mmHg 44%
    02:00 +23°C° 0 mm 1 mps 757 mmHg 45%
    03:00 +23°C° 0 mm 1 mps 757 mmHg 45%
    04:00 +23°C° 0 mm 1 mps 757 mmHg 46%
    05:00 +23°C° 0 mm 1 mps 757 mmHg 47%
    06:00 +24°C° 0 mm 1 mps 757 mmHg 48%
    07:00 +25°C° 0 mm 2 mps 758 mmHg 45%
    08:00 +27°C° 0 mm 2 mps 758 mmHg 41%
    09:00 +29°C° 0 mm 2 mps 758 mmHg 38%
    10:00 +29°C° 0 mm 3 mps 758 mmHg 40%
    11:00 +30°C° 0 mm 3 mps 757 mmHg 41%
    12:00 +30°C° 0 mm 4 mps 757 mmHg 42%
    13:00 +30°C° 0 mm 4 mps 757 mmHg 45%
    14:00 +29°C° 0 mm 4 mps 757 mmHg 48%
    15:00 +29°C° 0 mm 4 mps 757 mmHg 50%
    16:00 +28°C° 0 mm 4 mps 757 mmHg 54%
    17:00 +27°C° 0 mm 5 mps 757 mmHg 57%
    18:00 +26°C° 0 mm 5 mps 757 mmHg 61%
    19:00 +25°C° 0.3 mm 5 mps 757 mmHg 66%
    20:00 +22°C° 0.3 mm 5 mps 757 mmHg 71%
    21:00 +21°C° 0.3 mm 5 mps 757 mmHg 76%
    22:00 +20°C° 0.4 mm 5 mps 757 mmHg 77%
    23:00 +19°C° 0.4 mm 5 mps 758 mmHg 79%

    18 August, Saturday

    Time Temperature Precipitation Wind Pressure Humidity
    00:00 +19°C° 0.4 mm 5 mps 758 mmHg 80%
    01:00 +18°C° 0.1 mm 4 mps 758 mmHg 81%
    02:00 +17°C° 0.1 mm 4 mps 758 mmHg 82%
    03:00 +17°C° 0.1 mm 4 mps 758 mmHg 83%
    04:00 +15°C° 0 mm 5 mps 758 mmHg 82%
    05:00 +15°C° 0 mm 5 mps 759 mmHg 81%
    06:00 +15°C° 0 mm 5 mps 759 mmHg 80%
    07:00 +17°C° 0 mm 6 mps 759 mmHg 72%
    08:00 +19°C° 0 mm 6 mps 759 mmHg 64%
    09:00 +21°C° 0 mm 6 mps 759 mmHg 57%
    10:00 +22°C° 0 mm 6 mps 759 mmHg 52%
    11:00 +23°C° 0 mm 6 mps 759 mmHg 47%
    12:00 +24°C° 0 mm 6 mps 759 mmHg 41%
    13:00 +24°C° 0 mm 7 mps 759 mmHg 40%
    14:00 +24°C° 0 mm 7 mps 759 mmHg 39%
    15:00 +24°C° 0 mm 7 mps 759 mmHg 38%
    16:00 +23°C° 0 mm 7 mps 759 mmHg 41%
    17:00 +22°C° 0 mm 6 mps 759 mmHg 43%
    18:00 +21°C° 0 mm 6 mps 759 mmHg 46%
    19:00 +20°C° 0 mm 5 mps 759 mmHg 50%
    20:00 +19°C° 0 mm 5 mps 760 mmHg 54%
    21:00 +17°C° 0 mm 5 mps 760 mmHg 58%
    22:00 +16°C° 0 mm 5 mps 760 mmHg 61%
    23:00 +15°C° 0 mm 4 mps 760 mmHg 64%

    19 August, Sunday

    Time Temperature Precipitation Wind Pressure Humidity
    00:00 +14°C° 0 mm 4 mps 760 mmHg 68%
    01:00 +14°C° 0 mm 4 mps 760 mmHg 70%
    02:00 +13°C° 0 mm 4 mps 760 mmHg 72%
    03:00 +12°C° 0 mm 4 mps 761 mmHg 75%
    04:00 +12°C° 0 mm 5 mps 761 mmHg 73%
    05:00 +13°C° 0 mm 5 mps 761 mmHg 71%
    06:00 +13°C° 0 mm 6 mps 761 mmHg 69%
    07:00 +14°C° 0 mm 6 mps 761 mmHg 62%
    08:00 +15°C° 0 mm 7 mps 761 mmHg 55%
    09:00 +17°C° 0 mm 7 mps 761 mmHg 48%
    10:00 +18°C° 0 mm 7 mps 760 mmHg 46%
    11:00 +20°C° 0 mm 7 mps 760 mmHg 44%
    12:00 +21°C° 0 mm 7 mps 760 mmHg 41%
    13:00 +21°C° 0 mm 7 mps 760 mmHg 41%
    14:00 +21°C° 0 mm 7 mps 760 mmHg 42%
    15:00 +22°C° 0 mm 7 mps 759 mmHg 42%
    16:00 +21°C° 0 mm 6 mps 759 mmHg 45%
    17:00 +21°C° 0 mm 6 mps 759 mmHg 48%
    18:00 +20°C° 0 mm 5 mps 759 mmHg 51%
    19:00 +19°C° 0 mm 5 mps 759 mmHg 55%
    20:00 +18°C° 0 mm 4 mps 760 mmHg 60%
    21:00 +15°C° 0 mm 4 mps 760 mmHg 65%
    22:00 +15°C° 0 mm 4 mps 760 mmHg 68%
    23:00 +14°C° 0 mm 4 mps 760 mmHg 71%

    20 August, Monday

    Time Temperature Precipitation Wind Pressure Humidity
    00:00 +14°C° 0 mm 3 mps 760 mmHg 75%
    01:00 +13°C° 0 mm 3 mps 760 mmHg 77%
    02:00 +13°C° 0 mm 3 mps 760 mmHg 79%
    03:00 +12°C° 0 mm 3 mps 760 mmHg 82%
    04:00 +12°C° 0 mm 3 mps 760 mmHg 81%
    05:00 +13°C° 0 mm 3 mps 760 mmHg 80%
    06:00 +13°C° 0 mm 3 mps 761 mmHg 78%
    07:00 +16°C° 0 mm 3 mps 761 mmHg 69%
    08:00 +18°C° 0 mm 4 mps 761 mmHg 61%
    09:00 +20°C° 0 mm 4 mps 761 mmHg 52%
    10:00 +21°C° 0 mm 4 mps 760 mmHg 47%
    11:00 +22°C° 0 mm 3 mps 760 mmHg 42%
    12:00 +24°C° 0 mm 3 mps 760 mmHg 37%
    13:00 +24°C° 0 mm 3 mps 760 mmHg 35%
    14:00 +25°C° 0 mm 3 mps 760 mmHg 34%
    15:00 +25°C° 0 mm 3 mps 759 mmHg 32%
    16:00 +24°C° 0 mm 2 mps 759 mmHg 35%
    17:00 +24°C° 0 mm 2 mps 759 mmHg 38%
    18:00 +23°C° 0 mm 2 mps 759 mmHg 41%
    19:00 +21°C° 0 mm 2 mps 759 mmHg 44%
    20:00 +19°C° 0 mm 2 mps 759 mmHg 47%
    21:00 +18°C° 0 mm 2 mps 759 mmHg 50%
    22:00 +17°C° 0 mm 2 mps 759 mmHg 52%
    23:00 +18°C° 0 mm 1 mps 759 mmHg 54%
    Show more